| time (UTC) | temp C | wind direction | speed KPH | gust KPH | rain 1hr cm | rain 24hr cm | rain mn cm | humidity % | barometer mb |
| 20260506112620 | 6 | 325 | 1.6 | 4.8 | 0.00 | 0.71 | 0.71 | 99 | 1009.0 |
| 20260506112118 | 6 | 317 | 0.0 | 0.0 | 0.00 | 0.71 | 0.71 | 99 | 1008.5 |
| 20260506111616 | 6 | 314 | 0.0 | 1.6 | 0.00 | 0.71 | 0.71 | 99 | 1008.5 |
| 20260506111113 | 6 | 348 | 3.2 | 4.8 | 0.00 | 0.71 | 0.71 | 99 | 1008.6 |
| 20260506110610 | 6 | 330 | 4.8 | 8.0 | 0.00 | 0.71 | 0.71 | 99 | 1008.5 |
| 20260506110108 | 6 | 319 | 0.0 | 1.6 | 0.00 | 0.71 | 0.71 | 99 | 1008.8 |
| 20260506105604 | 6 | 314 | 1.6 | 3.2 | 0.00 | 0.71 | 0.71 | 99 | 1009.0 |
| 20260506105101 | 6 | 315 | 0.0 | 3.2 | 0.00 | 0.71 | 0.71 | 99 | 1007.8 |
| 20260506104559 | 6 | 337 | 3.2 | 4.8 | 0.00 | 0.71 | 0.71 | 99 | 1008.1 |
| 20260506104057 | 6 | 337 | 4.8 | 4.8 | 0.00 | 0.71 | 0.71 | 99 | 1008.5 |
| 20260506103554 | 6 | 328 | 3.2 | 12.9 | 0.00 | 0.71 | 0.71 | 99 | 1008.3 |
| 20260506103050 | 6 | 319 | 6.4 | 9.7 | 0.00 | 0.71 | 0.71 | 99 | 1007.9 |
| 20260506102549 | 6 | 317 | 1.6 | 4.8 | 0.00 | 0.71 | 0.71 | 99 | 1008.0 |
| 20260506102046 | 6 | 313 | 3.2 | 4.8 | 0.00 | 0.71 | 0.71 | 99 | 1008.1 |
| 20260506101542 | 6 | 359 | 3.2 | 4.8 | 0.00 | 0.71 | 0.71 | 99 | 1008.0 |
| 20260506101039 | 6 | 319 | 0.0 | 1.6 | 0.00 | 0.71 | 0.71 | 99 | 1007.4 |
| 20260506100538 | 6 | 328 | 1.6 | 3.2 | 0.00 | 0.71 | 0.71 | 99 | 1007.2 |
| 20260506100035 | 6 | 15 | 6.4 | 8.0 | 0.00 | 0.71 | 0.71 | 99 | 1007.2 |
| 20260506095534 | 6 | 5 | 1.6 | 3.2 | 0.00 | 0.71 | 0.71 | 99 | 1007.4 |
| 20260506095030 | 6 | 345 | 1.6 | 4.8 | 0.00 | 0.71 | 0.71 | 99 | 1007.5 |
| 20260506094528 | 6 | 330 | 6.4 | 9.7 | 0.00 | 0.71 | 0.71 | 99 | 1007.9 |
| 20260506094026 | 6 | 336 | 8.0 | 11.3 | 0.13 | 0.71 | 0.71 | 99 | 1007.9 |
| 20260506093524 | 6 | 290 | 1.6 | 3.2 | 0.13 | 0.71 | 0.71 | 99 | 1008.1 |
| 20260506093021 | 6 | 319 | 3.2 | 4.8 | 0.00 | 0.69 | 0.69 | 99 | 1008.3 |
| 20260506092519 | 6 | 325 | 4.8 | 4.8 | 0.00 | 0.69 | 0.69 | 99 | 1008.3 |
| 20260506092015 | 6 | 329 | 1.6 | 4.8 | 0.18 | 0.69 | 0.69 | 99 | 1008.1 |
| 20260506091514 | 7 | 318 | 3.2 | 8.0 | 0.18 | 0.69 | 0.69 | 99 | 1008.3 |
| 20260506091010 | 7 | 318 | 0.0 | 4.8 | 0.00 | 0.66 | 0.66 | 99 | 1008.3 |
| 20260506090508 | 7 | 294 | 1.6 | 3.2 | 0.18 | 0.66 | 0.66 | 99 | 1008.0 |
| 20260506090004 | 7 | 350 | 4.8 | 9.7 | 0.18 | 0.66 | 0.66 | 99 | 1008.0 |
| 20260506085501 | 7 | 317 | 1.6 | 8.0 | 0.00 | 0.64 | 0.64 | 99 | 1008.0 |
| 20260506084958 | 6 | 327 | 1.6 | 4.8 | 0.00 | 0.64 | 0.64 | 99 | 1007.9 |
| 20260506084454 | 6 | 320 | 0.0 | 1.6 | 0.00 | 0.64 | 0.64 | 99 | 1007.8 |
| 20260506083950 | 6 | 326 | 3.2 | 4.8 | 0.00 | 0.64 | 0.64 | 99 | 1007.5 |
| 20260506083448 | 6 | 335 | 0.0 | 1.6 | 0.00 | 0.64 | 0.64 | 99 | 1007.9 |
| 20260506082945 | 6 | 323 | 1.6 | 4.8 | 0.00 | 0.64 | 0.64 | 99 | 1007.8 |
| 20260506082442 | 6 | 332 | 3.2 | 4.8 | 0.13 | 0.64 | 0.64 | 99 | 1007.7 |
| 20260506081938 | 6 | 322 | 0.0 | 1.6 | 0.13 | 0.64 | 0.64 | 99 | 1008.1 |
| 20260506081436 | 6 | 325 | 3.2 | 9.7 | 0.00 | 0.61 | 0.61 | 99 | 1008.1 |
| 20260506080933 | 6 | 326 | 1.6 | 4.8 | 0.18 | 0.61 | 0.61 | 99 | 1008.0 |
| 20260506080430 | 6 | 335 | 3.2 | 4.8 | 0.18 | 0.61 | 0.61 | 99 | 1008.0 |
| 20260506073414 | 6 | 324 | 3.2 | 3.2 | 0.13 | 0.53 | 0.53 | 99 | 1008.1 |
| 20260506072911 | 6 | 325 | 3.2 | 4.8 | 0.13 | 0.53 | 0.53 | 99 | 1008.0 |
| 20260506072409 | 6 | 333 | 8.0 | 12.9 | 0.00 | 0.51 | 0.51 | 99 | 1007.8 |
| 20260506071906 | 6 | 318 | 1.6 | 4.8 | 0.18 | 0.51 | 0.51 | 99 | 1007.9 |
| 20260506071404 | 6 | 324 | 4.8 | 4.8 | 0.18 | 0.51 | 0.51 | 99 | 1007.7 |
| 20260506070901 | 7 | 329 | 1.6 | 4.8 | 0.13 | 0.48 | 0.48 | 99 | 1007.7 |
| 20260506070357 | 7 | 336 | 3.2 | 3.2 | 0.13 | 0.48 | 0.48 | 99 | 1007.7 |
| 20260506062335 | 7 | 339 | 3.2 | 3.2 | 0.00 | 0.38 | 0.38 | 99 | 1007.8 |
| 20260506061830 | 7 | 330 | 3.2 | 4.8 | 0.00 | 0.38 | 0.38 | 99 | 1008.0 |
| 20260506061327 | 7 | 353 | 1.6 | 3.2 | 0.18 | 0.38 | 0.38 | 99 | 1008.0 |
| 20260506060826 | 7 | 320 | 0.0 | 1.6 | 0.30 | 0.38 | 0.38 | 99 | 1007.9 |
| 20260506060323 | 7 | 7 | 1.6 | 3.2 | 0.30 | 0.36 | 0.36 | 99 | 1007.9 |
| 20260506051255 | 7 | 3 | 9.7 | 11.3 | 0.18 | 0.13 | 0.13 | 99 | 1008.3 |
| 20260506050753 | 7 | 1 | 3.2 | 4.8 | 0.18 | 0.13 | 0.13 | 99 | 1008.3 |
| 20260506050250 | 7 | 2 | 3.2 | 8.0 | 0.13 | 0.10 | 0.10 | 99 | 1008.2 |
| 20260506044741 | 7 | 326 | 1.6 | 4.8 | 0.00 | 0.08 | 0.08 | 99 | 1008.3 |
| 20260506044238 | 7 | 328 | 1.6 | 3.2 | 0.18 | 0.08 | 0.08 | 99 | 1008.6 |
| 20260506043735 | 7 | 352 | 4.8 | 11.3 | 0.18 | 0.08 | 0.08 | 99 | 1008.5 |
| 20260506043233 | 7 | 317 | 4.8 | 11.3 | 0.00 | 0.05 | 0.05 | 99 | 1008.5 |
| 20260506042731 | 7 | 26 | 4.8 | 8.0 | 0.18 | 0.05 | 0.05 | 99 | 1008.8 |
| 20260506042229 | 7 | 341 | 3.2 | 4.8 | 0.18 | 0.05 | 0.05 | 99 | 1008.5 |
| 20260506041728 | 7 | 327 | 4.8 | 9.7 | 0.00 | 0.03 | 0.03 | 99 | 1008.6 |
| 20260506041224 | 7 | 341 | 6.4 | 9.7 | 0.13 | 0.03 | 0.03 | 99 | 1008.8 |
| 20260506040722 | 7 | 316 | 3.2 | 11.3 | 0.13 | 0.03 | 0.03 | 99 | 1008.8 |
| 20260506040219 | 8 | 327 | 1.6 | 12.9 | 0.18 | 0.00 | 0.00 | 99 | 1008.6 |
| 20260506035715 | 8 | 321 | 4.8 | 9.7 | 0.18 | 2.31 | 2.31 | 99 | 1008.6 |
| 20260506035212 | 8 | 318 | 1.6 | 9.7 | 0.13 | 2.29 | 2.29 | 99 | 1009.0 |
| 20260506034709 | 8 | 331 | 3.2 | 3.2 | 0.13 | 2.29 | 2.29 | 99 | 1009.0 |
| 20260506034206 | 8 | 317 | 1.6 | 3.2 | 0.18 | 2.26 | 2.26 | 99 | 1009.0 |
| 20260506033704 | 8 | 358 | 8.0 | 9.7 | 0.18 | 2.26 | 2.26 | 99 | 1009.1 |
| 20260506033200 | 8 | 325 | 1.6 | 4.8 | 0.13 | 2.24 | 2.24 | 99 | 1009.0 |
| 20260506032657 | 8 | 321 | 1.6 | 3.2 | 0.18 | 2.21 | 2.21 | 99 | 1009.2 |
| 20260506032154 | 8 | 350 | 4.8 | 4.8 | 0.30 | 2.21 | 2.21 | 99 | 1009.1 |
| 20260506031651 | 8 | 349 | 1.6 | 3.2 | 0.30 | 2.18 | 2.18 | 99 | 1009.2 |
| 20260506031148 | 8 | 323 | 0.0 | 3.2 | 0.18 | 2.16 | 2.16 | 99 | 1009.2 |
| 20260506030647 | 8 | 328 | 0.0 | 1.6 | 0.13 | 2.13 | 2.13 | 99 | 1009.1 |
| 20260506030143 | 8 | 318 | 0.0 | 0.0 | 0.30 | 2.13 | 2.13 | 99 | 1009.3 |
| 20260506025640 | 8 | 323 | 0.0 | 0.0 | 0.30 | 2.11 | 2.11 | 99 | 1009.5 |
| 20260506025136 | 8 | 322 | 0.0 | 0.0 | 0.30 | 2.08 | 2.08 | 99 | 1009.4 |
| 20260506024634 | 8 | 324 | 0.0 | 0.0 | 0.36 | 2.06 | 2.06 | 99 | 1009.4 |
| 20260506024130 | 8 | 303 | 3.2 | 3.2 | 0.30 | 2.03 | 2.03 | 99 | 1009.5 |
| 20260506023626 | 8 | 298 | 3.2 | 3.2 | 0.30 | 2.01 | 2.01 | 99 | 1009.5 |
| 20260506023124 | 8 | 321 | 1.6 | 3.2 | 0.48 | 1.98 | 1.98 | 99 | 1009.0 |
| 20260506022621 | 8 | 357 | 4.8 | 4.8 | 0.61 | 1.96 | 1.96 | 99 | 1009.1 |
| 20260506022118 | 8 | 354 | 1.6 | 8.0 | 0.43 | 1.91 | 1.91 | 99 | 1008.8 |
| 20260506021616 | 8 | 332 | 4.8 | 4.8 | 0.30 | 1.85 | 1.85 | 99 | 1008.6 |
| 20260506021113 | 8 | 326 | 0.0 | 3.2 | 0.30 | 1.83 | 1.83 | 99 | 1008.6 |
| 20260506020610 | 8 | 342 | 4.8 | 4.8 | 0.30 | 1.80 | 1.80 | 99 | 1008.5 |
| 20260506020108 | 8 | 331 | 0.0 | 3.2 | 0.30 | 1.78 | 1.78 | 99 | 1008.5 |
| 20260506015605 | 8 | 328 | 1.6 | 4.8 | 0.13 | 1.75 | 1.75 | 99 | 1008.3 |
| 20260506015102 | 8 | 344 | 4.8 | 8.0 | 0.36 | 1.73 | 1.73 | 99 | 1008.1 |
| 20260506014600 | 8 | 31 | 6.4 | 8.0 | 0.48 | 1.73 | 1.73 | 99 | 1008.2 |
| 20260506014055 | 8 | 1 | 3.2 | 3.2 | 0.43 | 1.68 | 1.68 | 99 | 1008.4 |
| 20260506013553 | 8 | 324 | 1.6 | 4.8 | 0.48 | 1.65 | 1.65 | 99 | 1008.3 |
| 20260506013050 | 9 | 326 | 1.6 | 3.2 | 0.30 | 1.60 | 1.60 | 99 | 1008.5 |
| 20260506012546 | 8 | 343 | 3.2 | 4.8 | 0.30 | 1.57 | 1.57 | 99 | 1008.5 |
| 20260506012043 | 9 | 343 | 1.6 | 4.8 | 0.30 | 1.55 | 1.55 | 99 | 1008.9 |
| 20260506011541 | 9 | 337 | 1.6 | 3.2 | 0.30 | 1.52 | 1.52 | 99 | 1008.6 |
| 20260506011036 | 9 | 346 | 1.6 | 3.2 | 0.48 | 1.50 | 1.50 | 99 | 1008.5 |
| 20260506010531 | 8 | 336 | 1.6 | 3.2 | 0.48 | 1.45 | 1.45 | 99 | 1008.4 |
| 20260506010027 | 8 | 353 | 4.8 | 4.8 | 0.48 | 1.42 | 1.42 | 99 | 1008.4 |
| 20260506005524 | 9 | 345 | 0.0 | 8.0 | 0.18 | 1.37 | 1.37 | 99 | 1008.4 |
| 20260506005019 | 8 | 19 | 4.8 | 12.9 | 0.13 | 1.35 | 1.35 | 99 | 1007.8 |
| 20260506004517 | 9 | 344 | 3.2 | 4.8 | 0.43 | 1.35 | 1.35 | 99 | 1009.0 |
| 20260506004014 | 8 | 343 | 3.2 | 4.8 | 0.79 | 1.32 | 1.32 | 99 | 1008.2 |
| 20260506003510 | 9 | 351 | 1.6 | 4.8 | 0.61 | 1.27 | 1.27 | 99 | 1008.0 |
| 20260506003006 | 9 | 11 | 1.6 | 3.2 | 0.30 | 1.19 | 1.19 | 99 | 1007.8 |
| 20260506002502 | 9 | 355 | 1.6 | 4.8 | 0.30 | 1.17 | 1.17 | 99 | 1007.9 |
| 20260506001958 | 9 | 359 | 3.2 | 4.8 | 0.13 | 1.14 | 1.14 | 99 | 1008.0 |
| 20260506001454 | 9 | 5 | 1.6 | 4.8 | 0.00 | 1.12 | 1.12 | 99 | 1008.0 |
| 20260506000952 | 9 | 353 | 1.6 | 8.0 | 0.00 | 1.12 | 1.12 | 99 | 1008.0 |
| 20260506000449 | 9 | 12 | 4.8 | 8.0 | 0.00 | 1.12 | 1.12 | 99 | 1008.0 |
| 20260505235946 | 9 | 341 | 3.2 | 3.2 | 0.00 | 1.12 | 1.12 | 99 | 1008.1 |
| 20260505235445 | 9 | 338 | 0.0 | 3.2 | 0.00 | 1.12 | 1.12 | 99 | 1007.9 |
| 20260505234941 | 9 | 337 | 1.6 | 8.0 | 0.00 | 1.12 | 1.12 | 99 | 1008.1 |
| 20260505234439 | 9 | 336 | 1.6 | 4.8 | 0.18 | 1.12 | 1.12 | 99 | 1008.2 |
| 20260505233935 | 9 | 328 | 0.0 | 1.6 | 0.18 | 1.12 | 1.12 | 99 | 1007.9 |
| 20260505233433 | 9 | 328 | 6.4 | 8.0 | 0.18 | 1.09 | 1.09 | 99 | 1008.1 |
| 20260505232930 | 10 | 350 | 4.8 | 9.7 | 0.30 | 1.09 | 1.09 | 99 | 1008.2 |
| 20260505232428 | 10 | 348 | 3.2 | 8.0 | 0.30 | 1.07 | 1.07 | 99 | 1008.3 |
| 20260505231924 | 10 | 334 | 4.8 | 8.0 | 0.30 | 1.04 | 1.04 | 99 | 1008.3 |
| 20260505231422 | 10 | 324 | 3.2 | 4.8 | 0.30 | 1.02 | 1.02 | 99 | 1008.3 |
| 20260505230920 | 10 | 322 | 1.6 | 9.7 | 0.48 | 0.99 | 0.99 | 99 | 1008.3 |
| 20260505230418 | 10 | 333 | 8.0 | 11.3 | 0.30 | 0.94 | 0.94 | 99 | 1008.1 |
| 20260505225914 | 10 | 308 | 1.6 | 8.0 | 0.43 | 0.91 | 0.91 | 99 | 1008.4 |
| 20260505225411 | 11 | 314 | 4.8 | 9.7 | 0.79 | 0.89 | 0.89 | 99 | 1008.2 |
| 20260505224906 | 11 | 328 | 1.6 | 3.2 | 0.89 | 0.81 | 0.81 | 99 | 1008.4 |
| 20260505224404 | 11 | 335 | 4.8 | 8.0 | 0.71 | 0.74 | 0.74 | 99 | 1008.4 |
| 20260505223901 | 11 | 311 | 3.2 | 4.8 | 0.30 | 0.66 | 0.66 | 99 | 1008.0 |
| 20260505223357 | 11 | 21 | 8.0 | 9.7 | 0.00 | 0.61 | 0.61 | 99 | 1007.9 |
| 20260505222853 | 12 | 13 | 4.8 | 9.7 | 0.18 | 0.61 | 0.61 | 99 | 1007.7 |
| 20260505222350 | 12 | 344 | 8.0 | 11.3 | 0.18 | 0.61 | 0.61 | 99 | 1007.8 |
| 20260505221847 | 13 | 324 | 1.6 | 3.2 | 0.13 | 0.58 | 0.58 | 99 | 1007.6 |
| 20260505221344 | 13 | 320 | 1.6 | 1.6 | 0.13 | 0.58 | 0.58 | 99 | 1007.9 |
| 20260505220841 | 13 | 315 | 0.0 | 1.6 | 0.00 | 0.56 | 0.56 | 99 | 1007.8 |
| 20260505220338 | 13 | 297 | 0.0 | 3.2 | 0.00 | 0.56 | 0.56 | 99 | 1008.0 |
| 20260505215835 | 13 | 300 | 0.0 | 3.2 | 0.00 | 0.56 | 0.56 | 99 | 1007.9 |
| 20260505215333 | 13 | 306 | 1.6 | 3.2 | 0.00 | 0.56 | 0.56 | 99 | 1008.1 |
| 20260505214831 | 13 | 295 | 1.6 | 1.6 | 0.00 | 0.56 | 0.56 | 99 | 1007.8 |
| 20260505214328 | 13 | 305 | 0.0 | 1.6 | 0.00 | 0.56 | 0.56 | 99 | 1007.9 |
| 20260505213825 | 13 | 263 | 4.8 | 4.8 | 0.18 | 0.56 | 0.56 | 99 | 1007.9 |
| 20260505213323 | 13 | 311 | 0.0 | 8.0 | 0.18 | 0.56 | 0.56 | 99 | 1007.8 |
| 20260505212819 | 13 | 284 | 4.8 | 4.8 | 0.00 | 0.53 | 0.53 | 99 | 1007.7 |
| 20260505212316 | 13 | 302 | 4.8 | 8.0 | 0.13 | 0.53 | 0.53 | 99 | 1007.9 |
| 20260505211812 | 13 | 283 | 4.8 | 11.3 | 0.13 | 0.53 | 0.53 | 99 | 1007.9 |
| 20260505211310 | 13 | 292 | 3.2 | 4.8 | 0.00 | 0.51 | 0.51 | 99 | 1007.8 |
| 20260505210806 | 13 | 302 | 1.6 | 4.8 | 0.18 | 0.51 | 0.51 | 99 | 1007.9 |
| 20260505210303 | 13 | 299 | 1.6 | 4.8 | 0.97 | 0.51 | 0.51 | 99 | 1008.0 |
| 20260505205800 | 13 | 260 | 8.0 | 9.7 | 1.37 | 0.48 | 0.48 | 99 | 1007.9 |
| 20260505205259 | 13 | 302 | 3.2 | 9.7 | 0.71 | 0.36 | 0.36 | 98 | 1008.2 |
| 20260505204755 | 13 | 304 | 1.6 | 3.2 | 0.61 | 0.25 | 0.25 | 98 | 1007.6 |
| 20260505204253 | 14 | 281 | 3.2 | 8.0 | 0.66 | 0.23 | 0.23 | 98 | 1007.9 |
| 20260505203750 | 14 | 298 | 3.2 | 3.2 | 0.48 | 0.15 | 0.15 | 97 | 1007.8 |
| 20260505203247 | 14 | 274 | 3.2 | 3.2 | 0.30 | 0.13 | 0.13 | 97 | 1007.7 |
| 20260505202742 | 14 | 304 | 1.6 | 3.2 | 0.00 | 0.08 | 0.08 | 96 | 1007.4 |
| 20260505202239 | 14 | 290 | 1.6 | 3.2 | 0.13 | 0.08 | 0.08 | 96 | 1007.7 |
| 20260505201735 | 14 | 290 | 4.8 | 4.8 | 0.00 | 0.05 | 0.05 | 96 | 1007.8 |
| 20260505201233 | 14 | 299 | 3.2 | 8.0 | 0.00 | 0.05 | 0.05 | 96 | 1007.7 |
| 20260505200731 | 14 | 270 | 3.2 | 4.8 | 0.00 | 0.05 | 0.05 | 95 | 1007.9 |
| 20260505200228 | 14 | 303 | 3.2 | 11.3 | 0.00 | 0.05 | 0.05 | 95 | 1007.9 |
| 20260505195723 | 15 | 272 | 3.2 | 8.0 | 0.00 | 0.05 | 0.05 | 95 | 1007.9 |
| 20260505195221 | 15 | 271 | 8.0 | 9.7 | 0.00 | 0.05 | 0.05 | 94 | 1007.9 |
| 20260505194718 | 15 | 308 | 4.8 | 9.7 | 0.00 | 0.05 | 0.05 | 94 | 1007.6 |
| 20260505194215 | 15 | 282 | 4.8 | 4.8 | 0.18 | 0.05 | 0.05 | 93 | 1007.9 |
| 20260505193710 | 15 | 296 | 4.8 | 8.0 | 0.18 | 0.05 | 0.05 | 91 | 1007.9 |
| 20260505193208 | 15 | 274 | 4.8 | 8.0 | 0.00 | 0.03 | 0.03 | 88 | 1007.8 |
| 20260505192707 | 16 | 258 | 8.0 | 11.3 | 0.00 | 0.03 | 0.03 | 85 | 1007.7 |
| 20260505192204 | 16 | 245 | 6.4 | 8.0 | 0.00 | 0.03 | 0.03 | 82 | 1007.9 |
| 20260505191702 | 17 | 308 | 1.6 | 8.0 | 0.00 | 0.03 | 0.03 | 81 | 1007.8 |
| 20260505191200 | 17 | 262 | 4.8 | 4.8 | 0.00 | 0.03 | 0.03 | 81 | 1007.6 |
| 20260505190656 | 17 | 282 | 6.4 | 9.7 | 0.00 | 0.03 | 0.03 | 80 | 1007.5 |
| 20260505190155 | 17 | 295 | 6.4 | 11.3 | 0.00 | 0.03 | 0.03 | 80 | 1007.6 |
| 20260505185653 | 17 | 270 | 4.8 | 4.8 | 0.00 | 0.03 | 0.03 | 78 | 1007.8 |
| 20260505185149 | 17 | 264 | 6.4 | 9.7 | 0.00 | 0.03 | 0.03 | 77 | 1007.9 |
| 20260505184645 | 17 | 282 | 3.2 | 4.8 | 0.00 | 0.03 | 0.03 | 77 | 1008.1 |
| 20260505184142 | 17 | 279 | 4.8 | 14.5 | 0.00 | 0.03 | 0.03 | 77 | 1008.0 |
| 20260505183639 | 17 | 290 | 3.2 | 4.8 | 0.00 | 0.03 | 0.03 | 77 | 1008.1 |
| 20260505183137 | 17 | 245 | 9.7 | 11.3 | 0.00 | 0.03 | 0.03 | 77 | 1008.3 |
| 20260505182633 | 17 | 274 | 8.0 | 9.7 | 0.00 | 0.03 | 0.03 | 76 | 1008.0 |
| 20260505182130 | 17 | 263 | 8.0 | 9.7 | 0.00 | 0.03 | 0.03 | 77 | 1008.2 |
| 20260505181626 | 17 | 263 | 8.0 | 9.7 | 0.00 | 0.03 | 0.03 | 76 | 1008.2 |
| 20260505181124 | 17 | 295 | 6.4 | 12.9 | 0.00 | 0.03 | 0.03 | 77 | 1008.1 |
| 20260505180620 | 17 | 248 | 11.3 | 16.1 | 0.00 | 0.03 | 0.03 | 76 | 1008.0 |
| 20260505180118 | 17 | 273 | 6.4 | 12.9 | 0.00 | 0.03 | 0.03 | 76 | 1007.9 |
| 20260505175613 | 17 | 307 | 6.4 | 24.1 | 0.00 | 0.03 | 0.03 | 76 | 1008.0 |
| 20260505175110 | 17 | 283 | 6.4 | 12.9 | 0.00 | 0.03 | 0.03 | 76 | 1008.0 |
| 20260505174606 | 17 | 223 | 9.7 | 12.9 | 0.00 | 0.03 | 0.03 | 75 | 1007.9 |
| 20260505174103 | 17 | 295 | 8.0 | 11.3 | 0.00 | 0.03 | 0.03 | 74 | 1008.1 |
| 20260505173559 | 18 | 288 | 6.4 | 14.5 | 0.00 | 0.03 | 0.03 | 73 | 1007.9 |
| 20260505173056 | 18 | 252 | 12.9 | 17.7 | 0.00 | 0.03 | 0.03 | 73 | 1007.8 |
| 20260505172554 | 18 | 234 | 4.8 | 11.3 | 0.00 | 0.03 | 0.03 | 72 | 1007.8 |
| 20260505172050 | 18 | 274 | 11.3 | 14.5 | 0.00 | 0.03 | 0.03 | 72 | 1007.8 |
| 20260505171545 | 18 | 236 | 14.5 | 29.0 | 0.00 | 0.03 | 0.03 | 71 | 1007.8 |
| 20260505171042 | 18 | 263 | 12.9 | 20.9 | 0.00 | 0.03 | 0.03 | 72 | 1007.8 |
| 20260505170539 | 18 | 284 | 9.7 | 16.1 | 0.00 | 0.03 | 0.03 | 72 | 1007.8 |
| 20260505170036 | 18 | 245 | 8.0 | 14.5 | 0.00 | 0.03 | 0.03 | 71 | 1007.7 |
| 20260505165531 | 18 | 260 | 14.5 | 17.7 | 0.00 | 0.03 | 0.03 | 71 | 1007.8 |
| 20260505165027 | 18 | 250 | 8.0 | 11.3 | 0.00 | 0.03 | 0.03 | 71 | 1007.7 |
| 20260505164523 | 18 | 257 | 6.4 | 11.3 | 0.00 | 0.03 | 0.03 | 71 | 1007.6 |
| 20260505164021 | 18 | 279 | 9.7 | 20.9 | 0.00 | 0.03 | 0.03 | 71 | 1007.6 |
| 20260505163520 | 18 | 260 | 8.0 | 12.9 | 0.00 | 0.03 | 0.03 | 71 | 1007.8 |
| 20260505163016 | 18 | 252 | 14.5 | 22.5 | 0.00 | 0.03 | 0.03 | 70 | 1007.7 |
| 20260505162509 | 18 | 238 | 11.3 | 32.2 | 0.00 | 0.03 | 0.03 | 69 | 1008.0 |
| 20260505162006 | 18 | 299 | 8.0 | 16.1 | 0.00 | 0.03 | 0.03 | 69 | 1007.6 |
| 20260505161502 | 18 | 247 | 12.9 | 27.4 | 0.00 | 0.03 | 0.03 | 68 | 1007.7 |
| 20260505161000 | 18 | 236 | 17.7 | 24.1 | 0.00 | 0.03 | 0.03 | 68 | 1007.6 |
| 20260505160458 | 19 | 247 | 17.7 | 25.7 | 0.00 | 0.03 | 0.03 | 68 | 1007.6 |
| 20260505152934 | 19 | 268 | 12.9 | 16.1 | 0.00 | 0.03 | 0.03 | 66 | 1006.7 |
| 20260505152431 | 19 | 226 | 19.3 | 33.8 | 0.00 | 0.03 | 0.03 | 66 | 1006.8 |
| 20260505151926 | 19 | 223 | 17.7 | 35.4 | 0.00 | 0.03 | 0.03 | 67 | 1006.6 |
| 20260505151422 | 19 | 263 | 8.0 | 9.7 | 0.00 | 0.03 | 0.03 | 67 | 1006.7 |
| 20260505150920 | 18 | 205 | 16.1 | 20.9 | 0.00 | 0.03 | 0.03 | 67 | 1007.0 |
| 20260505150416 | 18 | 240 | 16.1 | 22.5 | 0.00 | 0.03 | 0.03 | 68 | 1006.9 |
| 20260505140340 | 17 | 239 | 22.5 | 35.4 | 0.00 | 0.03 | 0.03 | 74 | 1006.6 |
| 20260505130304 | 15 | 251 | 4.8 | 14.5 | 0.00 | 0.03 | 0.03 | 81 | 1006.8 |
| 20260505124754 | 15 | 293 | 4.8 | 17.7 | 0.00 | 0.03 | 0.03 | 81 | 1006.8 |
| 20260505124251 | 15 | 202 | 11.3 | 17.7 | 0.00 | 0.03 | 0.03 | 81 | 1006.8 |
| 20260505123746 | 15 | 247 | 4.8 | 8.0 | 0.00 | 0.03 | 0.03 | 82 | 1006.7 |
| 20260505123243 | 15 | 272 | 8.0 | 12.9 | 0.00 | 0.03 | 0.03 | 82 | 1006.5 |
| 20260505122740 | 15 | 312 | 1.6 | 25.7 | 0.00 | 0.03 | 0.03 | 82 | 1006.5 |
| 20260505122237 | 15 | 235 | 8.0 | 9.7 | 0.00 | 0.03 | 0.03 | 82 | 1006.4 |
| 20260505121734 | 15 | 252 | 6.4 | 11.3 | 0.00 | 0.03 | 0.03 | 81 | 1006.1 |
| 20260505121230 | 15 | 286 | 4.8 | 20.9 | 0.00 | 0.03 | 0.03 | 80 | 1006.2 |
| 20260505120727 | 15 | 301 | 4.8 | 12.9 | 0.00 | 0.03 | 0.03 | 79 | 1006.1 |
| 20260505120223 | 16 | 243 | 12.9 | 16.1 | 0.00 | 0.03 | 0.03 | 78 | 1005.8 |
| 20260505115721 | 15 | 227 | 19.3 | 37.0 | 0.00 | 0.03 | 0.03 | 78 | 1005.9 |
| 20260505115220 | 15 | 245 | 14.5 | 20.9 | 0.00 | 0.03 | 0.03 | 79 | 1005.3 |
| 20260505114717 | 15 | 255 | 4.8 | 8.0 | 0.00 | 0.03 | 0.03 | 79 | 1005.2 |
| 20260505114212 | 15 | 252 | 6.4 | 11.3 | 0.00 | 0.03 | 0.03 | 79 | 1005.2 |
| 20260505113709 | 15 | 228 | 3.2 | 9.7 | 0.00 | 0.03 | 0.03 | 79 | 1005.1 |
| 20260505113206 | 15 | 236 | 6.4 | 17.7 | 0.00 | 0.03 | 0.03 | 79 | 1005.0 |